| time (UTC) | temp F | wind direction | speed MPH | gust MPH | rain 1hr in | rain 24hr in | rain mn in | humidity % | barometer mb |
| 20260506091047 | 59 | 123 | 2.0 | 4.0 | 0.00 | 0.35 | 0.01 | 84 | 1007.2 |
| 20260506085041 | 57 | 138 | 2.0 | 4.0 | 0.00 | 0.35 | 0.01 | 86 | 1007.0 |
| 20260506084037 | 57 | 162 | 3.0 | 4.0 | 0.00 | 0.35 | 0.01 | 87 | 1006.8 |
| 20260506083034 | 58 | 135 | 1.0 | 4.0 | 0.00 | 0.35 | 0.01 | 88 | 1006.9 |
| 20260506082030 | 57 | 142 | 2.0 | 4.0 | 0.00 | 0.35 | 0.01 | 89 | 1006.7 |
| 20260506073113 | 54 | 168 | 1.0 | 4.0 | 0.00 | 0.35 | 0.01 | 94 | 1006.8 |
| 20260506071107 | 54 | 148 | 1.0 | 4.0 | 0.00 | 0.35 | 0.01 | 98 | 1006.7 |
| 20260506062050 | 53 | 153 | 1.0 | 4.0 | 0.00 | 0.35 | 0.01 | 99 | 1006.7 |
| 20260506061046 | 53 | 150 | 0.0 | 2.0 | 0.00 | 0.35 | 0.01 | 99 | 1006.9 |
| 20260506051026 | 52 | 158 | 2.0 | 4.0 | 0.00 | 0.35 | 0.01 | 99 | 1006.9 |
| 20260506045019 | 52 | 147 | 2.0 | 4.0 | 0.00 | 0.35 | 0.01 | 99 | 1007.0 |
| 20260506044015 | 52 | 140 | 1.0 | 4.0 | 0.00 | 0.35 | 0.01 | 99 | 1006.9 |
| 20260506043112 | 52 | 135 | 2.0 | 4.0 | 0.00 | 0.35 | 0.01 | 99 | 1006.9 |
| 20260506042109 | 52 | 140 | 1.0 | 4.0 | 0.00 | 0.35 | 0.01 | 99 | 1006.9 |
| 20260506041106 | 52 | 154 | 2.0 | 4.0 | 0.00 | 0.35 | 0.01 | 99 | 1006.8 |
| 20260506034055 | 52 | 147 | 1.0 | 4.0 | 0.00 | 0.35 | 0.01 | 99 | 1006.5 |
| 20260506032048 | 52 | 154 | 2.0 | 4.0 | 0.00 | 0.35 | 0.01 | 99 | 1006.5 |
| 20260506030041 | 52 | 132 | 2.0 | 6.0 | 0.00 | 0.35 | 0.01 | 99 | 1006.6 |
| 20260506025038 | 52 | 159 | 2.0 | 4.0 | 0.00 | 0.35 | 0.01 | 99 | 1006.7 |
| 20260506024035 | 52 | 143 | 1.0 | 6.0 | 0.00 | 0.35 | 0.01 | 99 | 1006.7 |
| 20260506023031 | 52 | 152 | 3.0 | 4.0 | 0.00 | 0.35 | 0.01 | 99 | 1006.8 |
| 20260506021024 | 52 | 161 | 3.0 | 6.0 | 0.00 | 0.35 | 0.01 | 99 | 1006.7 |
| 20260506020021 | 53 | 141 | 1.0 | 4.0 | 0.00 | 0.35 | 0.01 | 99 | 1006.8 |
| 20260506015018 | 53 | 146 | 2.0 | 4.0 | 0.00 | 0.40 | 0.01 | 99 | 1006.7 |
| 20260506014114 | 53 | 133 | 2.0 | 4.0 | 0.01 | 0.40 | 0.01 | 99 | 1006.8 |
| 20260506013111 | 53 | 148 | 1.0 | 6.0 | 0.01 | 0.40 | 0.01 | 99 | 1007.1 |
| 20260506011104 | 53 | 158 | 0.0 | 2.0 | 0.01 | 0.40 | 0.01 | 99 | 1007.0 |
| 20260506004055 | 53 | 144 | 2.0 | 4.0 | 0.00 | 0.40 | 0.00 | 99 | 1007.3 |
| 20260506003050 | 53 | 143 | 1.0 | 2.0 | 0.00 | 0.40 | 0.00 | 99 | 1007.2 |
| 20260506002047 | 53 | 158 | 1.0 | 2.0 | 0.00 | 0.40 | 0.00 | 99 | 1007.4 |
| 20260506001044 | 53 | 158 | 2.0 | 2.0 | 0.00 | 0.40 | 0.00 | 99 | 1007.4 |
| 20260506000040 | 53 | 143 | 1.0 | 2.0 | 0.00 | 0.40 | 0.00 | 99 | 1007.6 |
| 20260505235037 | 53 | 146 | 0.0 | 2.0 | 0.00 | 0.40 | 0.00 | 99 | 1007.5 |
| 20260505233030 | 53 | 147 | 1.0 | 4.0 | 0.00 | 0.40 | 0.00 | 99 | 1007.6 |
| 20260505232027 | 53 | 158 | 0.0 | 2.0 | 0.00 | 0.40 | 0.00 | 99 | 1007.6 |
| 20260505231023 | 53 | 158 | 1.0 | 4.0 | 0.00 | 0.40 | 0.00 | 99 | 1007.6 |
| 20260505230020 | 53 | 158 | 0.0 | 4.0 | 0.00 | 0.40 | 0.00 | 98 | 1007.5 |
| 20260505225017 | 53 | 158 | 1.0 | 2.0 | 0.00 | 0.40 | 0.00 | 98 | 1007.6 |
| 20260505224113 | 53 | 158 | 1.0 | 2.0 | 0.00 | 0.40 | 0.00 | 98 | 1007.5 |
| 20260505223110 | 53 | 0.0 | 0.0 | 0.00 | 0.40 | 0.00 | 98 | 1007.5 | |
| 20260505222107 | 53 | 0.0 | 2.0 | 0.00 | 0.40 | 0.00 | 98 | 1007.6 | |
| 20260505221103 | 53 | 121 | 1.0 | 2.0 | 0.00 | 0.40 | 0.00 | 98 | 1007.6 |
| 20260505215056 | 53 | 0.0 | 0.0 | 0.00 | 0.40 | 0.40 | 98 | 1007.7 | |
| 20260505214053 | 53 | 0.0 | 0.0 | 0.00 | 0.40 | 0.40 | 98 | 1007.8 | |
| 20260505213050 | 53 | 113 | 0.0 | 2.0 | 0.00 | 0.40 | 0.40 | 98 | 1007.9 |
| 20260505212046 | 53 | 49 | 0.0 | 2.0 | 0.00 | 0.40 | 0.40 | 98 | 1007.9 |
| 20260505211043 | 53 | 333 | 1.0 | 2.0 | 0.01 | 0.40 | 0.40 | 98 | 1007.9 |
| 20260505210039 | 53 | 338 | 0.0 | 2.0 | 0.01 | 0.40 | 0.40 | 98 | 1008.0 |
| 20260505205036 | 53 | 0.0 | 2.0 | 0.01 | 0.40 | 0.40 | 98 | 1007.6 | |
| 20260505204033 | 53 | 341 | 1.0 | 4.0 | 0.02 | 0.40 | 0.40 | 98 | 1007.5 |
| 20260505203029 | 54 | 0.0 | 2.0 | 0.02 | 0.40 | 0.40 | 98 | 1007.6 | |
| 20260505202026 | 54 | 0.0 | 0.0 | 0.02 | 0.40 | 0.40 | 98 | 1007.6 | |
| 20260505201022 | 53 | 135 | 0.0 | 2.0 | 0.01 | 0.39 | 0.39 | 98 | 1007.7 |
| 20260505195015 | 53 | 135 | 1.0 | 2.0 | 0.01 | 0.39 | 0.39 | 98 | 1007.7 |
| 20260505194112 | 53 | 178 | 1.0 | 2.0 | 0.00 | 0.38 | 0.38 | 97 | 1007.8 |
| 20260505193109 | 53 | 293 | 0.0 | 2.0 | 0.01 | 0.38 | 0.38 | 97 | 1007.6 |
| 20260505192105 | 53 | 0.0 | 2.0 | 0.02 | 0.38 | 0.38 | 97 | 1007.6 | |
| 20260505190059 | 53 | 0.0 | 2.0 | 0.02 | 0.38 | 0.38 | 97 | 1007.5 | |
| 20260505185055 | 54 | 0.0 | 0.0 | 0.02 | 0.38 | 0.38 | 97 | 1007.5 | |
| 20260505184052 | 54 | 0.0 | 2.0 | 0.02 | 0.38 | 0.38 | 97 | 1007.5 | |
| 20260505183049 | 54 | 45 | 0.0 | 2.0 | 0.04 | 0.37 | 0.37 | 97 | 1007.3 |
| 20260505182045 | 54 | 0.0 | 2.0 | 0.06 | 0.35 | 0.35 | 97 | 1007.4 | |
| 20260505181042 | 54 | 0.0 | 0.0 | 0.07 | 0.35 | 0.35 | 97 | 1007.4 | |
| 20260505180038 | 54 | 312 | 1.0 | 4.0 | 0.11 | 0.35 | 0.35 | 97 | 1007.1 |
| 20260505175035 | 54 | 348 | 3.0 | 8.0 | 0.13 | 0.35 | 0.35 | 97 | 1006.9 |
| 20260505174031 | 54 | 13 | 1.0 | 2.0 | 0.14 | 0.35 | 0.35 | 96 | 1007.2 |
| 20260505173028 | 55 | 132 | 1.0 | 2.0 | 0.12 | 0.33 | 0.33 | 96 | 1007.3 |
| 20260505172025 | 55 | 139 | 2.0 | 6.0 | 0.08 | 0.30 | 0.30 | 96 | 1007.5 |
| 20260505171021 | 55 | 134 | 2.0 | 4.0 | 0.07 | 0.28 | 0.28 | 96 | 1007.6 |
| 20260505164112 | 56 | 124 | 3.0 | 8.0 | 0.11 | 0.21 | 0.21 | 93 | 1007.4 |
| 20260505163108 | 57 | 293 | 1.0 | 4.0 | 0.15 | 0.21 | 0.21 | 91 | 1007.0 |
| 20260505162104 | 57 | 315 | 0.0 | 2.0 | 0.15 | 0.21 | 0.21 | 90 | 1006.8 |
| 20260505161101 | 57 | 4 | 3.0 | 6.0 | 0.15 | 0.21 | 0.21 | 90 | 1006.5 |
| 20260505153047 | 65 | 161 | 1.0 | 4.0 | 0.00 | 0.06 | 0.06 | 68 | 1006.8 |
| 20260505152044 | 67 | 56 | 2.0 | 6.0 | 0.00 | 0.06 | 0.06 | 61 | 1006.5 |
| 20260505140115 | 70 | 26 | 2.0 | 7.0 | 0.00 | 0.06 | 0.06 | 52 | 1007.0 |
| 20260505124048 | 71 | 36 | 1.0 | 2.0 | 0.00 | 0.06 | 0.06 | 49 | 1008.1 |
| 20260505123044 | 72 | 27 | 2.0 | 6.0 | 0.00 | 0.06 | 0.06 | 48 | 1008.0 |
| 20260505122041 | 71 | 55 | 1.0 | 4.0 | 0.00 | 0.06 | 0.06 | 49 | 1008.1 |
| 20260505121037 | 71 | 21 | 4.0 | 9.0 | 0.00 | 0.06 | 0.06 | 50 | 1008.3 |
| 20260505120034 | 70 | 319 | 3.0 | 6.0 | 0.00 | 0.06 | 0.06 | 52 | 1008.5 |
| 20260505115031 | 70 | 310 | 3.0 | 6.0 | 0.00 | 0.06 | 0.06 | 53 | 1008.5 |
| 20260505114027 | 72 | 18 | 2.0 | 4.0 | 0.00 | 0.06 | 0.06 | 52 | 1008.5 |
| 20260505113024 | 72 | 38 | 2.0 | 4.0 | 0.00 | 0.06 | 0.06 | 52 | 1008.6 |
| 20260505112020 | 70 | 28 | 2.0 | 6.0 | 0.00 | 0.06 | 0.06 | 55 | 1008.7 |
| 20260505111017 | 69 | 77 | 2.0 | 4.0 | 0.00 | 0.06 | 0.06 | 56 | 1008.7 |
| 20260505102100 | 70 | 56 | 1.0 | 6.0 | 0.00 | 0.06 | 0.06 | 60 | 1009.3 |
| 20260505101057 | 69 | 30 | 2.0 | 4.0 | 0.00 | 0.06 | 0.06 | 61 | 1009.3 |
| 20260505100053 | 69 | 14 | 3.0 | 8.0 | 0.00 | 0.06 | 0.06 | 61 | 1009.4 |
| 20260505095050 | 68 | 23 | 2.0 | 6.0 | 0.00 | 0.06 | 0.06 | 66 | 1009.5 |
| 20260505094047 | 67 | 65 | 3.0 | 6.0 | 0.00 | 0.06 | 0.06 | 69 | 1009.6 |
| 20260505093043 | 66 | 20 | 2.0 | 7.0 | 0.00 | 0.06 | 0.06 | 72 | 1009.6 |